www.pogodaiklimat.ru
Время
(UTC), дата
15 16.01
18 16.01
21 16.01
00 17.01
03 17.01
06 17.01
09 17.01
12 17.01
15 17.01
18 17.01
21 17.01
00 18.01
03 18.01
06 18.01
09 18.01
12 18.01
15 18.01
18 18.01
21 18.01
00 19.01
03 19.01
06 19.01
09 19.01
12 19.01
15 19.01
18 19.01
21 19.01
00 20.01
03 20.01
06 20.01
09 20.01
12 20.01
15 20.01
18 20.01
21 20.01
00 21.01
03 21.01
06 21.01
09 21.01
12 21.01
15 21.01
18 21.01
21 21.01
00 22.01
03 22.01
06 22.01
09 22.01
12 22.01
15 22.01
18 22.01
21 22.01
00 23.01
03 23.01
06 23.01
09 23.01
12 23.01
Ветер
(напр.,м/с)
Видим. Явления Облачность Т
(С)
Тd
(С)
f
(%)
Тe
(С)
Тes
(С)
Комфортность P
(гПа)
Po
(гПа)
Тmin
(С)
Tmax
(С)
R
(мм)
R24
(мм)
S
(см)
СВ 5 10 км ясно +1.0 -0.2 92 -5 -5 по сезону 1030.4 1007.5
СВ 3 100 м туман [диам. гололёда 0 мм] ?/? -1.7 -1.7 100 -7 -7 по сезону 1030.8 1007.7 +5.2
В 3 900 м переохл. туман [диам. сложн. отлож. 3 мм] ?/? -4.9 -5.2 98 -11 -11 холодно 1030.5 1007.1
СВ 3 100 м переохл. туман [диам. сложн. отлож. 7 мм] ?/? -2.0 -2.0 100 -7 -7 по сезону 1029.6 1006.5
СВ 3 100 м переохл. туман [диам. сложн. отлож. 11 мм] ?/? -0.2 -0.2 100 -5 -5 по сезону 1029.4 1006.4 -5.1
СВ 3 100 м туман [диам. сложн. отлож. 12 мм] ?/? +0.5 +0.5 100 -4 -4 по сезону 1030.0 1007.1 -5.1 0.6
СВ 4 100 м туман [диам. гололёда 1 мм] ?/? -0.1 -0.1 100 -6 -6 по сезону 1030.3 1007.3
СВ 5 10 км {морось, туман} [диам. гололёда 0 мм] 10/8 720 м
[Sc Ci fib]
+2.0 +0.7 91 -4 -3 по сезону 1029.2 1006.4
СВ 4 10 км 10/10 540 м
[Sc]
+0.2 -0.9 92 -5 -5 по сезону 1030.1 1007.1 0.7
СВ 4 2100 м слаб. переохл. морось (гололёд) [диам. гололёда 0 мм] 10/10 120 м
[St]
-0.3 -0.6 98 -6 -6 по сезону 1030.9 1007.9 +2.0 0.1
СВ 6
{11}
10 км в посл. час переохл. осадки (гололёд) {морось} [диам. гололёда 1 мм] 10/10 330 м
[St]
+0.1 -0.3 97 -7 -7 по сезону 1030.4 1007.4
СВ 5 10 км {морось} [диам. гололёда 1 мм] 10/10 500 м
[St]
+0.4 -1.2 89 -6 -6 по сезону 1030.4 1007.4
СВ 5 10 км [диам. гололёда 0 мм] 10/10 540 м
[St]
+0.4 -1.7 86 -6 -6 по сезону 1029.9 1007.0 -0.5 0.0
СВ 5 10 км 10/10 600 м
[Sc]
+0.4 -0.7 92 -6 -6 по сезону 1030.8 1007.8 -0.4 0.0
СВ 9-11
{11}
10 км 8/8 840 м
[Sc]
+2.1 -0.5 83 -5 -5 по сезону 1030.3 1007.5
В 7
{11}
10 км 8/8 630 м
[Sc]
+2.5 -2.0 72 -4 -3 по сезону 1029.0 1006.2
В 5 10 км 10/10 630 м
[Sc]
+1.3 -2.5 76 -4 -4 по сезону 1028.7 1005.9
В 9-12
{13}
10 км 10/10 420 м
[St]
+0.4 -2.0 84 -7 -7 по сезону 1028.4 1005.5 +3.2
СВ 6
{13}
10 км в посл. час зёрна 10/10 540 м
[St]
+0.4 -1.2 89 -6 -6 по сезону 1027.4 1004.5
СВ 5 10 км {снег} 10/10 800 м
[Sc]
+0.5 -0.6 92 -6 -6 по сезону 1026.9 1004.0
СВ 6
{10}
6000 м в посл. час зёрна 10/10 180 м
[St]
+0.5 +0.2 98 -6 -6 по сезону 1025.7 1002.9 -0.1 0.2
В 6
{11}
10 км {снег} 9/9 800 м
[Sc]
+0.8 -1.4 85 -6 -6 по сезону 1026.4 1003.6 -0.1 0.5 <0.5
В 11-15
{17}
10 км 1/1 600 м
[Sc]
+3.3 -3.3 62 -4 -4 по сезону 1025.7 1003.1
СВ 10-14
{16}
10 км ясно +3.5 -3.1 62 -3 -3 по сезону 1025.4 1002.8
В 11-14
{16}
10 км 5/5 600 м
[Sc]
+0.7 -3.6 73 -7 -7 прохладно 1027.2 1004.3 0.3
В 10-14
{17}
10 км 10/10 660 м
[Sc]
+1.0 -3.5 72 -7 -7 по сезону 1028.7 1005.8 +4.0
В 8-12
{14}
10 км 10/10 700 м
[Sc]
+0.9 -3.8 71 -6 -6 по сезону 1029.7 1006.8
СВ 6
{12}
5000 м дымка 10/10 660 м
[Sc]
-1.1 -1.4 98 -8 -8 по сезону 1031.3 1008.2
СВ 6
{10}
5000 м дымка {дождь} 10/10 150 м
[St]
-2.1 -2.4 98 -10 -10 прохладно 1032.1 1008.9 -2.2 0.0
СВ 5 3900 м дымка {дождь} 10/10 150 м
[St]
-2.8 -3.1 98 -10 -10 прохладно 1033.4 1010.1 -2.9 0.0
С 5 6000 м дымка 10/10 720 м
[Sc]
-1.2 -2.6 90 -8 -8 прохладно 1034.6 1011.4
С 6 10 км 10/10 600 м
[Sc]
+0.2 -2.8 80 -6 -6 прохладно 1034.5 1011.4
С 6 5000 м снежные зёрна 10/10 210 м
[St]
-2.0 -2.7 95 -9 -9 холодно 1035.4 1012.1 0.0
С 4 10 км {снег} 10/10 240 м
[St]
-3.6 -4.7 92 -10 -10 прохладно 1037.4 1013.9 +0.4 0.0
СВ 1 5000 м в посл. час переохл. осадки (гололёд) {морось} [диам. гололёда 1 мм] 10/10 180 м
[St]
-3.2 -3.5 98 -6 -6 по сезону 1037.1 1013.7
С 3 3000 м дымка {снег} [диам. гололёда 1 мм] 10/10 150 м
[St]
-3.1 -3.2 99 -9 -9 прохладно 1036.7 1013.3
В 2 3500 м слаб. переохл. морось (гололёд) [диам. гололёда 1 мм] 10/10 180 м
[St]
-3.1 -3.4 98 -7 -7 по сезону 1036.2 1012.8 -3.7 0.3
Ю 2 6000 м дымка {снег} [диам. гололёда 1 мм] 10/10 360 м
[St]
-2.7 -3.1 97 -7 -7 по сезону 1036.4 1013.0 -3.7 0.4 <0.5
ЮЗ 3 10 км [диам. гололёда 1 мм] 10/10 400 м
[St]
-1.1 -2.1 93 -6 -6 по сезону 1035.9 1012.7
ЮЗ 4 10 км [диам. гололёда 0 мм] 10/10 400 м
[St]
+0.2 -1.9 86 -5 -5 прохладно 1033.6 1010.6
Ю 4 10 км 10/10 420 м
[St]
+0.5 -1.6 86 -5 -5 по сезону 1032.1 1009.1 0.1
ЮЗ 5 10 км 10/8 600 м
[Sc Ac und]
+1.6 -0.2 88 -4 -4 по сезону 1031.1 1008.2 +1.7
Ю 6 10 км 10/6 720 м
[Sc Ac und]
+2.8 +0.9 87 -3 -3 по сезону 1028.9 1006.2
ЮЗ 5 10 км 6/4 750 м
[Sc Ci fib]
+3.3 +1.8 90 -2 -2 по сезону 1027.2 1004.6
ЮЗ 5 10 км 10/10 1020 м
[Sc]
+2.7 +1.1 89 -3 -3 по сезону 1025.1 1002.5 +0.5
ЮЗ 4 10 км 6/4 1000 м
[Sc Ci fib]
+2.7 +0.3 84 -2 -2 по сезону 1024.1 1001.5 +1.6
ЮЗ 9-11
{11}
10 км 10/10 420 м
[St]
+5.0 +2.0 81 -1 -1 по сезону 1022.6 1000.2
ЮЗ 10-13
{16}
10 км 9/9 800 м
[Sc]
+6.2 +0.1 65 +1 +1 по сезону 1019.5 997.3
ЮЗ 5
{15}
10 км 10/0
[Ci fib]
+3.9 -2.1 65 -1 -1 по сезону 1018.4 996.0
ЮЗ 8-12
{12}
10 км 10/3 300 м
[St Ac und]
+5.0 +3.3 89 -1 -1 по сезону 1015.7 993.5 +6.5
З 7-11
{12}
10 км 10/10 1380 м
[Sc]
+6.4 +3.7 83 +1 +1 тепло 1013.8 991.7
СЗ 5
{15}
10 км 10/5 840 м
[Sc Ac und]
+3.4 -1.2 72 -2 -2 по сезону 1013.8 991.5
З 2 10 км слаб. снег {дождь} 10/3 630 м
[Frnb As op]
+1.0 +0.7 98 -3 -3 по сезону 1013.7 991.2 +0.7 0.7
СЗ 5 10 км {снег, дождь} 10/10 1260 м
[Sc]
+1.1 -0.7 88 -5 -5 по сезону 1015.8 993.2 +0.7 0.7
С 8-12
{15}
10 км 9/9 1440 м
[Sc]
+1.8 -2.9 71 -5 -5 по сезону 1018.8 996.2
СЗ 9-13
{15}
10 км в посл. час ливневой снег 10/5 1200 м
[Cb calv Ac und]
+3.1 -6.1 51 -3 -3 по сезону 1019.7 997.2
Местоположение метеостанции Симферополь (Крым, Россия): широта 45.03 долгота 33.97 высота над уровнем моря 181 м.
В архиве по умолчанию представлена погода в Симферополе за последнюю неделю. Архивные данные за месяц целиком и за предыдущие месяцы, начиная с января 2011 года, Вы можете получить, выбрав интересующий диапазон дат из раскрывающегося списка и нажав кнопку "Найти!".
*Определитесь, кто Вы:
Внимание! Время в таблицах - всемирное. Для получения местного времени необходимо прибавить поправку, которая равна 3 ч.
Смотрите также архив погоды в соседних городах и на ближайших метеорологических станциях:
Партнеры нашего сайта:      
Пояснения к столбцам:
  • Ветер - указаны скорость ветра в м/с - средняя за 10 мин, порывы в срок и между сроками (в фигурных скобках) и направление, откуда дует ветер: С - северный,
  • СВ - северо-восточный, В - восточный, ЮВ - юго-восточный, Ю - южный, ЮЗ - юго-западный, З - западный, СЗ - северо-западный.
  • Видимость - горизонтальная дальность видимости в метрах или километрах. При видимости от 1 до 10 км при отсутствии осадков обычно наблюдается дымка, при ухудшении видимости до 1 км и менее - туман. В сухую погоду видимость может ухудшаться дымом, пылью или мглою.
  • Явления - указаны атмосферные явления, наблюдавшиеся в срок или в последний час перед сроком; фигурными скобками обозначены явления, наблюдавшиеся между сроками (за 1-3 часа до срока); квадратными скобками обозначены град или гололедные отложения с указанием их диаметра в мм.
  • Облачность - указаны через наклонную черту общая и нижняя облачность в баллах и высота нижней границы облаков в метрах; квадратными скобками обозначены формы облаков: Ci - перистые, Cs - перисто-слоистые, Cc - перисто-кучевые, Ac - высококучевые, As - высокослоистые, Sc - слоисто-кучевые, Ns - слоисто-дождевые, Cu - кучевые, Cb - кучево-дождевые. Подробнее классификацию облаков см. в Атласе облаков (PDF).
  • T - Температура воздуха - температура, измеренная на высоте 2 м над землей.
  • Td - Температура точки росы - температура, при понижении до которой содержащийся в воздухе водяной пар достигнет насыщения.
  • f - Относительная влажность воздуха - влажноcть воздуха, измеренная на высоте 2 м над землей.
  • Te - Эффективная температура - температура, которую ощущает одетый по сезону человек в тени. Характеристика душности погоды. При расчете учитывается влияние влажности воздуха и скорости ветра на теплоощущения человека.
  • Tes - Эффективная температура на солнце - температура, которую ощущает человек, с поправкой на солнечный нагрев. Характеристика знойности погоды. Зависит от высоты солнца над горизонтом, облачности и скорости ветра. Ночью, в пасмурную погоду, а также при ветре 12 м/с и более поправка равна нулю.
  • P - Атмосферное давление - приведенное к уровню моря атмосферное давление.
  • Po - Атмосферное давление - измеренное на уровне метеостанции атмосферное давление.
  • Tmin - Минимальная температура - минимум температуры воздуха на высоте 2 м над землей.
  • Tmax - Максимальная температура - максимум температуры воздуха на высоте 2 м над землей.
  • R - Количество осадков - Количество выпавших осадков за период времени, мм. При наведении курсора мыши на число - период времени, за который выпало указанное количество осадков.
  • R24 - Количество осадков - Количество выпавших осадков за 24 часа, мм.
  • S - Снежный покров - Высота снежного покрова, см. При наведении курсора мыши на число - состояние снежного покрова и степень покрытия местности в баллах.